Home > Weather > Stäfa > Past weeks

Flag for Switzerland Past Weather in Stäfa, Zurich, Switzerland — Yesterday and Last 2 Weeks

Now
65 °F

Mild.


Feels Like: 65 °F
Forecast: 55 / 74 °F
Wind: 3 mph from West

Location: Zuerich-Fluntern

Current Time: Jul 2, 2016 at 5:58:42 AM

Latest Report: Jul 2, 2016 at 5:00 AM


Visibility: N/A

Pressure: 29.99 "Hg

Humidity: 87%

Dew Point: 61 °F

Location of StäfaLocation

Past Weather in Stäfa — Graph

°F

Stäfa Temperature Yesterday

Maximum temperature yesterday: 78 °F (at 6:00 PM)
Minimum temperature yesterday: 60 °F (at 6:00 AM)
Average temperature yesterday: 68 °F

High & Low Weather Summary for the Past Weeks

 TemperatureHumidityPressure
High90 °F (Jun 23, 6:00 PM)97% (Jun 20, 4:00 AM)30.28 "Hg (Jun 20, 4:00 AM)
Low48 °F (Jun 17, 6:00 AM)38% (Jun 24, 3:00 PM)29.77 "Hg (Jun 17, 4:00 AM)
Average65 °F76%30.07 "Hg
* Reported Jun 17 4:00 AM — Jul 2 4:00 AM, Stäfa, Weather by CustomWeather, © 2016

Note: Actual official high and low records may vary slightly from our data, if they occured in-between our weather recording intervals... More about our weather records

Advertising

Stäfa Weather History for the Previous 24 Hours

Scroll right to see more
 ConditionsComfort  
Time TempWeatherWind HumidityBarometerVisibility
4:00 AM
Sat, Jul 2
66 °FMild.3 mph86%29.98 "HgN/A
3:00 AM65 °FMild.1 mph86%29.97 "HgN/A
2:00 AM64 °FMild.2 mph87%29.98 "HgN/A
1:00 AM65 °FMild.3 mph85%30.00 "HgN/A
12:00 AM66 °FMild.2 mph83%30.00 "HgN/A
11:00 PM
Fri, Jul 1
67 °FMild.2 mph82%30.00 "HgN/A
10:00 PM68 °FMild.2 mph81%29.99 "HgN/A
9:00 PM72 °FMild.2 mph76%29.96 "HgN/A
8:00 PM75 °FScattered clouds.2 mph60%29.95 "HgN/A
7:00 PM77 °FMild.3 mph55%29.94 "HgN/A
6:00 PM78 °FWarm.3 mph54%29.94 "HgN/A
5:00 PM77 °FWarm.3 mph52%29.96 "HgN/A
4:00 PM75 °FMild.1 mph59%29.98 "HgN/A
3:00 PM78 °FWarm.5 mph56%29.98 "HgN/A
2:00 PM76 °FScattered clouds.5 mph59%30.00 "HgN/A
1:00 PM73 °FMild.3 mph61%30.03 "HgN/A
12:00 PM70 °FMild.2 mph68%30.05 "HgN/A
11:00 AM68 °FMild.1 mph79%30.06 "HgN/A
10:00 AM64 °FMild.1 mph87%30.08 "HgN/A
9:00 AM63 °FMild.3 mph93%30.08 "HgN/A
8:00 AM63 °FScattered clouds.1 mph94%30.07 "HgN/A
7:00 AM61 °FCool.1 mph95%30.07 "HgN/A
6:00 AM60 °FCool.1 mph96%30.07 "HgN/A
5:00 AM61 °FCool.3 mph95%30.07 "HgN/A
Weather by CustomWeather, © 2016

See weather overviewHow to use our weather pages